Location: Leiter
(44.7178°N, 106.2687°W)
Time: 17:15:43
(UTC+00:00)

STARS - Pass Details

Date: 02 July 2022
Orbit: 620 x 637 km, 98.2° (Epoch: 18 August)

Event Time Altitude Azimuth Distance (km) Brightness Sun altitude
Rises 05:05:50 0° 23° (NNE) 2,932 ? -16.6°
Reaches altitude 10° 05:08:18 10° 35° (NE) 2,016 ? -16.8°
Maximum altitude 05:12:08 29° 96° (E) 1,147 ? -17.2°
Enters shadow 05:12:56 27° 116° (ESE) 1,196 ? -17.2°
